Tracking 27122 objects as of 26-Mar-2023
HD Live streaming from Space Station
objects crossing your sky now

STARLINK-3605

Track STARLINK-3605 now!
10-day predictions
STARLINK-3605 is classified as:


NORAD ID: 51805
Int'l Code: 2022-017AP
Perigee: 545.9 km
Apogee: 548.0 km
Inclination: 53.2 °
Period: 95.4 minutes
Semi major axis: 6917 km
RCS: Unknown
Launch date: February 25, 2022
Source: United States (US)
Launch site: AIR FORCE WESTERN TEST RANGE (AFWTR)
Your satellite tracking list
Your tracking list is empty




NASA's NSSDC Master Catalog

Two Line Element Set (TLE):
1 51805U 22017AP  23084.83963617  .00011136  00000-0  71705-3 0  9996
2 51805  53.2166 136.7634 0001473 113.2569 246.8578 15.08820846 61229
Source of the keplerian elements: AFSPC